Change the Weather History Date:

Friday, May 9, 2014

  Actual Average Record
Temperature  
Mean Temperature 70 °F -  
Max Temperature 75 °F 69 °F 84 °F (2004)
Min Temperature 66 °F 48 °F 41 °F (1999)
Cooling Degree Days 6    
Growing Degree Days 20 (Base 50)    
Moisture  
Dew Point 57 °F    
Average Humidity 64    
Maximum Humidity 87    
Minimum Humidity 55    
Precipitation  
Precipitation 0.00 in - - ()
Sea Level Pressure  
Sea Level Pressure 29.91 in    
Wind  
Wind Speed 10 mph (South)    
Max Wind Speed 21 mph    
Max Gust Speed 28 mph    
Visibility 10 miles    
Events      
Averages and records for this station are not official NWS values.
T = Trace of Precipitation, MM = Missing Value Source: NWS Daily Summary

Daily Weather History Graph

Daily Weather History Graph

Search for Another Location

Airport or City:

Trip Planner

Search our weather history database for the weather conditions in past years. The results will help you decide how hot, cold, wet, or windy it might be!

Date:

Astronomy

May. 09, 2014 Rise Set
Actual Time 6:22 AM EDT 8:35 PM EDT
Civil Twilight 5:52 AM EDT 9:05 PM EDT
Nautical Twilight 5:15 AM EDT 9:42 PM EDT
Astronomical Twilight 4:35 AM EDT 10:23 PM EDT
Moon 3:31 PM EDT (5/9) 3:24 AM EDT (5/9)
Length of Visible Light 15h 12m
Length of Day
14h 12m
Waxing Gibbous, 73% of the Moon is Illuminated
May 9
Waxing Gibbous
May 14
Full
May 21
Last Quarter
May 28
New
Jun 5
First Quarter

Hourly Weather History & Observations

Time (EDT) Temp. Dew Point Humidity Pressure Visibility Wind Dir Wind Speed Gust Speed Precip Events Conditions
12:53 AM 68.0 °F 54.0 °F 61% 30.00 in 10.0 mi South 5.8 mph - N/A   Clear
1:53 AM 68.0 °F 53.1 °F 59% 29.99 in 10.0 mi South 6.9 mph - N/A   Clear
2:53 AM 66.9 °F 52.0 °F 59% 29.96 in 10.0 mi South 6.9 mph - N/A   Clear
3:53 AM 66.9 °F 53.1 °F 61% 29.96 in 10.0 mi South 8.1 mph - N/A   Clear
5:53 AM 66.0 °F 52.0 °F 60% 29.95 in 10.0 mi South 6.9 mph - N/A   Clear
6:53 AM 66.0 °F 52.0 °F 60% 29.95 in 10.0 mi South 6.9 mph - N/A   Clear
7:53 AM 66.9 °F 53.1 °F 61% 29.96 in 10.0 mi South 8.1 mph - N/A   Clear
8:53 AM 70.0 °F 54.0 °F 57% 29.96 in 10.0 mi South 9.2 mph - N/A   Scattered Clouds
9:53 AM 73.0 °F 55.9 °F 55% 29.95 in 10.0 mi South 12.7 mph - N/A   Mostly Cloudy
10:53 AM 75.0 °F 57.9 °F 55% 29.92 in 10.0 mi South 15.0 mph 20.7 mph N/A   Scattered Clouds
11:53 AM 73.0 °F 60.1 °F 64% 29.92 in 10.0 mi SSW 13.8 mph - 0.00 in   Mostly Cloudy
12:53 PM 73.0 °F 61.0 °F 66% 29.91 in 10.0 mi South 17.3 mph 24.2 mph 0.00 in   Mostly Cloudy
1:53 PM 75.0 °F 60.1 °F 60% 29.88 in 10.0 mi SSW 12.7 mph 27.6 mph N/A   Mostly Cloudy
2:53 PM 73.9 °F 59.0 °F 59% 29.88 in 10.0 mi SW 15.0 mph - N/A   Mostly Cloudy
3:53 PM 73.9 °F 57.9 °F 57% 29.85 in 10.0 mi SSW 15.0 mph 24.2 mph N/A   Mostly Cloudy
4:53 PM 73.9 °F 57.0 °F 55% 29.84 in 10.0 mi SSW 20.7 mph 27.6 mph N/A   Overcast
5:53 PM 73.0 °F 60.1 °F 64% 29.84 in 10.0 mi SSW 19.6 mph 27.6 mph N/A   Mostly Cloudy
6:53 PM 71.1 °F 61.0 °F 70% 29.84 in 10.0 mi SSW 17.3 mph 26.5 mph N/A   Clear
7:53 PM 69.1 °F 62.1 °F 78% 29.85 in 10.0 mi South 10.4 mph - N/A   Partly Cloudy
8:53 PM 68.0 °F 62.1 °F 81% 29.85 in 10.0 mi SSW 11.5 mph - N/A   Clear
9:53 PM 66.9 °F 63.0 °F 87% 29.86 in 10.0 mi SSW 10.4 mph - N/A   Clear
11:53 PM 66.9 °F 63.0 °F 87% 29.89 in 10.0 mi SSW 8.1 mph - N/A   Clear